Вернуться в каталог

CZ-6A DEB

АктивенPO
NORAD 64662·DEBRIS·🇨🇳 China

Запущен Aug 6, 2024 с Taiyuan Satellite Launch Center

Loading…

Ближайшие Пролёты (ближайшие 24 часа)

TLE

СвежийSource: Space-Track

Эпоха: Sep 14, 2026, 00:10 UTC

1 64662U 24140AFC 26257.00711980  .00000287  00000-0  12713-3 0  9997
2 64662  88.9929 264.4642 0045204 282.3646  77.2487 14.20041303 97060

Отслеживайте CZ-6A DEB в реальном времени с AllMySat

Download on the App Store